TAIP48 YMES-YSNW

Flight info

Callsign TAIP48
Flight time N/A
Altitude 9000
Route VISER DCT COM DCT NWA
Aircraft EC35/L-SDGRY/S

Departure

Time N/A
Airport RAAF Base East Sale (YMES)

Arrival

Time 2026-04-21 01:34
Airport Naval Air Station Nowra - HMAS Albatross (YSNW)
Time Latitude Longitude Altitude Speed Heading
2026-04-21 00:33 -37.07673 148.22304 8960 ft 152 kts 43°
2026-04-21 00:34 -37.06855 148.23145 8960 ft 152 kts 42°
2026-04-21 00:34 -37.06028 148.23994 8959 ft 152 kts 42°
2026-04-21 00:34 -37.05210 148.24834 8959 ft 152 kts 42°
2026-04-21 00:34 -37.04391 148.25679 8948 ft 155 kts 43°
2026-04-21 00:35 -37.03539 148.26550 8948 ft 161 kts 43°
2026-04-21 00:35 -37.02663 148.27447 8957 ft 164 kts 42°
2026-04-21 00:35 -37.01772 148.28365 8961 ft 165 kts 42°
2026-04-21 00:35 -37.00891 148.29268 8962 ft 165 kts 42°
2026-04-21 00:36 -36.99994 148.30190 8962 ft 165 kts 42°
2026-04-21 00:36 -36.99108 148.31096 8963 ft 165 kts 42°
2026-04-21 00:36 -36.98224 148.32004 8964 ft 165 kts 43°
2026-04-21 00:36 -36.97337 148.32913 8965 ft 165 kts 43°
2026-04-21 00:37 -36.96446 148.33826 8966 ft 165 kts 42°
2026-04-21 00:37 -36.95546 148.34749 8966 ft 165 kts 42°
2026-04-21 00:37 -36.94664 148.35652 8966 ft 165 kts 42°
2026-04-21 00:37 -36.93768 148.36568 8966 ft 165 kts 42°
2026-04-21 00:38 -36.92878 148.37479 8966 ft 165 kts 42°
2026-04-21 00:38 -36.91982 148.38397 8954 ft 168 kts 43°
2026-04-21 00:38 -36.91061 148.39337 8955 ft 174 kts 43°
2026-04-21 00:38 -36.90104 148.40314 8964 ft 176 kts 42°
2026-04-21 00:39 -36.89163 148.41304 8965 ft 177 kts 43°
2026-04-21 00:39 -36.88215 148.42273 8965 ft 176 kts 41°
2026-04-21 00:39 -36.87261 148.43247 8962 ft 175 kts 42°
2026-04-21 00:39 -36.86318 148.44211 8960 ft 176 kts 42°
2026-04-21 00:40 -36.85361 148.45187 8960 ft 176 kts 42°
2026-04-21 00:40 -36.84414 148.46153 8959 ft 176 kts 42°
2026-04-21 00:40 -36.83465 148.47122 8958 ft 176 kts 42°
2026-04-21 00:40 -36.82513 148.48091 8957 ft 176 kts 42°
2026-04-21 00:41 -36.81563 148.49059 8955 ft 176 kts 43°
2026-04-21 00:41 -36.80599 148.50041 8954 ft 177 kts 42°
2026-04-21 00:41 -36.79650 148.51007 8951 ft 176 kts 42°
2026-04-21 00:41 -36.78698 148.51976 8950 ft 176 kts 43°
2026-04-21 00:42 -36.77741 148.52951 8949 ft 176 kts 42°
2026-04-21 00:42 -36.76799 148.53909 8949 ft 176 kts 42°
2026-04-21 00:42 -36.75845 148.54880 8949 ft 176 kts 42°
2026-04-21 00:42 -36.74882 148.55859 8948 ft 176 kts 42°
2026-04-21 00:43 -36.73930 148.56827 8947 ft 177 kts 42°
2026-04-21 00:43 -36.72981 148.57791 8947 ft 177 kts 42°
2026-04-21 00:43 -36.72017 148.58771 8948 ft 177 kts 42°
2026-04-21 00:43 -36.71067 148.59735 8950 ft 177 kts 43°
2026-04-21 00:44 -36.70116 148.60700 8951 ft 177 kts 42°
2026-04-21 00:44 -36.69163 148.61667 8953 ft 177 kts 42°
2026-04-21 00:44 -36.68196 148.62650 8955 ft 177 kts 42°
2026-04-21 00:45 -36.66291 148.64581 8958 ft 177 kts 42°
2026-04-21 00:45 -36.65320 148.65547 8960 ft 178 kts 40°
2026-04-21 00:45 -36.64354 148.66502 8963 ft 177 kts 42°
2026-04-21 00:45 -36.63404 148.67474 8964 ft 177 kts 41°
2026-04-21 00:46 -36.62448 148.68436 8965 ft 177 kts 42°
2026-04-21 00:46 -36.61487 148.69408 8967 ft 177 kts 42°
2026-04-21 00:46 -36.60518 148.70387 8970 ft 178 kts 42°
2026-04-21 00:46 -36.59562 148.71353 8972 ft 178 kts 42°
2026-04-21 00:47 -36.58596 148.72330 8974 ft 177 kts 42°
2026-04-21 00:47 -36.57634 148.73303 8976 ft 177 kts 42°
2026-04-21 00:47 -36.56683 148.74263 8979 ft 177 kts 42°
2026-04-21 00:47 -36.55722 148.75238 8980 ft 178 kts 41°
2026-04-21 00:48 -36.54752 148.76209 8982 ft 177 kts 42°
2026-04-21 00:48 -36.53802 148.77174 8984 ft 178 kts 41°
2026-04-21 00:48 -36.52840 148.78142 8986 ft 177 kts 42°
2026-04-21 00:48 -36.51873 148.79118 8987 ft 178 kts 42°
2026-04-21 00:49 -36.50906 148.80093 8989 ft 178 kts 42°
2026-04-21 00:49 -36.49941 148.81059 8991 ft 178 kts 42°
2026-04-21 00:49 -36.48991 148.82025 8992 ft 178 kts 43°
2026-04-21 00:49 -36.48024 148.82993 8994 ft 178 kts 41°
2026-04-21 00:50 -36.47062 148.83968 8994 ft 178 kts 43°
2026-04-21 00:50 -36.46094 148.84935 8995 ft 178 kts 41°
2026-04-21 00:50 -36.45141 148.85898 8995 ft 178 kts 43°
2026-04-21 00:50 -36.44171 148.86870 8995 ft 178 kts 42°
2026-04-21 00:51 -36.43205 148.87845 8996 ft 178 kts 42°
2026-04-21 00:51 -36.42236 148.88820 8996 ft 178 kts 42°
2026-04-21 00:51 -36.41275 148.89778 8993 ft 178 kts 43°
2026-04-21 00:51 -36.40309 148.90758 8990 ft 178 kts 42°
2026-04-21 00:52 -36.39341 148.91725 8987 ft 178 kts 42°
2026-04-21 00:52 -36.38372 148.92699 8982 ft 178 kts 42°
2026-04-21 00:52 -36.37412 148.93660 8979 ft 178 kts 43°
2026-04-21 00:52 -36.36442 148.94632 8979 ft 178 kts 42°
2026-04-21 00:53 -36.35477 148.95609 8978 ft 178 kts 44°
2026-04-21 00:53 -36.34559 148.96626 8821 ft 178 kts 46°
2026-04-21 00:53 -36.33658 148.97685 8652 ft 176 kts 46°
2026-04-21 00:53 -36.32762 148.98704 8482 ft 176 kts 46°
2026-04-21 00:54 -36.31863 148.99739 8311 ft 175 kts 46°
2026-04-21 00:54 -36.30962 149.00772 8140 ft 175 kts 46°
2026-04-21 00:54 -36.30065 149.01802 7970 ft 175 kts 46°
2026-04-21 00:54 -36.29182 149.02818 7801 ft 174 kts 46°
2026-04-21 00:55 -36.28286 149.03845 7628 ft 173 kts 46°
2026-04-21 00:55 -36.27401 149.04860 7456 ft 173 kts 46°
2026-04-21 00:55 -36.26523 149.05867 7286 ft 172 kts 46°
2026-04-21 00:55 -36.25640 149.06879 7114 ft 172 kts 46°
2026-04-21 00:56 -36.24760 149.07886 6944 ft 172 kts 46°
2026-04-21 00:56 -36.23880 149.08897 7059 ft 171 kts 47°
2026-04-21 00:56 -36.23001 149.09895 7188 ft 172 kts 46°
2026-04-21 00:56 -36.22125 149.10901 7353 ft 170 kts 46°
2026-04-21 00:57 -36.21258 149.11891 7520 ft 169 kts 46°
2026-04-21 00:57 -36.20396 149.12877 7685 ft 169 kts 46°
2026-04-21 00:57 -36.19535 149.13860 7851 ft 168 kts 46°
2026-04-21 00:57 -36.18670 149.14848 8021 ft 168 kts 46°
2026-04-21 00:58 -36.17813 149.15826 8190 ft 168 kts 46°
2026-04-21 00:58 -36.16947 149.16812 8358 ft 168 kts 47°
2026-04-21 00:58 -36.16090 149.17793 8520 ft 168 kts 46°
2026-04-21 00:58 -36.15229 149.18777 8684 ft 169 kts 46°
2026-04-21 00:59 -36.14364 149.19763 8830 ft 169 kts 46°
2026-04-21 00:59 -36.13476 149.20776 8889 ft 175 kts 46°
2026-04-21 00:59 -36.12568 149.21811 8924 ft 179 kts 46°
2026-04-21 00:59 -36.11645 149.22861 8948 ft 181 kts 46°
2026-04-21 01:00 -36.10717 149.23920 8957 ft 181 kts 46°
2026-04-21 01:00 -36.09792 149.24970 8960 ft 181 kts 46°
2026-04-21 01:00 -36.08873 149.26018 8960 ft 180 kts 46°
2026-04-21 01:00 -36.07941 149.27080 8960 ft 180 kts 46°
2026-04-21 01:01 -36.07021 149.28126 8960 ft 181 kts 46°
2026-04-21 01:01 -36.06089 149.29185 8960 ft 181 kts 46°
2026-04-21 01:01 -36.05175 149.30225 8961 ft 181 kts 47°
2026-04-21 01:01 -36.04247 149.31280 8961 ft 181 kts 47°
2026-04-21 01:02 -36.03319 149.32332 8963 ft 181 kts 47°
2026-04-21 01:02 -36.02393 149.33385 8964 ft 181 kts 47°
2026-04-21 01:02 -36.01464 149.34442 8965 ft 181 kts 47°
2026-04-21 01:02 -36.00526 149.35501 8967 ft 181 kts 47°
2026-04-21 01:03 -35.99606 149.36549 8969 ft 181 kts 47°
2026-04-21 01:03 -35.98670 149.37610 8970 ft 181 kts 47°
2026-04-21 01:03 -35.97745 149.38658 8973 ft 181 kts 47°
2026-04-21 01:03 -35.96808 149.39720 8975 ft 181 kts 47°
2026-04-21 01:04 -35.95884 149.40767 8977 ft 181 kts 47°
2026-04-21 01:04 -35.94953 149.41820 8979 ft 181 kts 47°
2026-04-21 01:04 -35.94027 149.42870 8981 ft 181 kts 47°
2026-04-21 01:04 -35.93087 149.43933 8984 ft 181 kts 47°
2026-04-21 01:05 -35.92163 149.44980 8985 ft 181 kts 47°
2026-04-21 01:05 -35.91232 149.46033 8987 ft 181 kts 47°
2026-04-21 01:05 -35.90293 149.47095 8989 ft 181 kts 47°
2026-04-21 01:05 -35.89370 149.48145 8989 ft 182 kts 47°
2026-04-21 01:06 -35.88434 149.49200 8994 ft 182 kts 47°
2026-04-21 01:06 -35.87495 149.50264 8994 ft 181 kts 47°
2026-04-21 01:06 -35.86568 149.51312 8992 ft 181 kts 47°
2026-04-21 01:06 -35.85628 149.52374 8988 ft 181 kts 47°
2026-04-21 01:07 -35.84701 149.53418 8984 ft 182 kts 47°
2026-04-21 01:07 -35.83772 149.54468 8980 ft 182 kts 47°
2026-04-21 01:07 -35.82839 149.55524 8975 ft 181 kts 47°
2026-04-21 01:07 -35.81896 149.56584 8970 ft 181 kts 47°
2026-04-21 01:08 -35.80966 149.57634 8964 ft 182 kts 47°
2026-04-21 01:08 -35.80033 149.58685 8960 ft 182 kts 47°
2026-04-21 01:08 -35.79102 149.59732 8956 ft 182 kts 47°
2026-04-21 01:08 -35.78160 149.60796 8951 ft 182 kts 47°
2026-04-21 01:09 -35.77228 149.61842 8948 ft 182 kts 47°
2026-04-21 01:09 -35.76295 149.62891 8947 ft 182 kts 47°
2026-04-21 01:09 -35.75363 149.63936 8949 ft 181 kts 47°
2026-04-21 01:09 -35.74422 149.64990 8951 ft 180 kts 48°
2026-04-21 01:10 -35.73486 149.66029 8955 ft 181 kts 47°
2026-04-21 01:10 -35.72560 149.67067 8954 ft 180 kts 48°
2026-04-21 01:10 -35.71639 149.68100 8949 ft 180 kts 48°
2026-04-21 01:10 -35.70716 149.69139 8946 ft 180 kts 48°
2026-04-21 01:11 -35.69779 149.70190 8944 ft 180 kts 48°
2026-04-21 01:11 -35.68852 149.71228 8941 ft 180 kts 48°
2026-04-21 01:11 -35.67928 149.72266 8940 ft 180 kts 47°
2026-04-21 01:11 -35.66994 149.73314 8937 ft 180 kts 47°
2026-04-21 01:12 -35.66071 149.74347 8934 ft 180 kts 47°
2026-04-21 01:12 -35.65148 149.75382 8932 ft 180 kts 48°
2026-04-21 01:12 -35.64212 149.76431 8929 ft 180 kts 48°
2026-04-21 01:12 -35.63288 149.77467 8928 ft 180 kts 48°
2026-04-21 01:13 -35.62365 149.78499 8928 ft 180 kts 48°
2026-04-21 01:13 -35.61431 149.79544 8928 ft 180 kts 48°
2026-04-21 01:13 -35.60505 149.80580 8928 ft 180 kts 48°
2026-04-21 01:13 -35.59585 149.81610 8927 ft 180 kts 48°
2026-04-21 01:14 -35.58653 149.82654 8928 ft 180 kts 48°
2026-04-21 01:14 -35.57727 149.83687 8927 ft 180 kts 48°
2026-04-21 01:14 -35.56806 149.84718 8927 ft 180 kts 48°
2026-04-21 01:14 -35.55871 149.85761 8928 ft 180 kts 48°
2026-04-21 01:15 -35.54946 149.86793 8928 ft 180 kts 48°
2026-04-21 01:15 -35.54008 149.87842 8928 ft 180 kts 48°
2026-04-21 01:15 -35.53082 149.88875 8928 ft 180 kts 47°
2026-04-21 01:15 -35.52154 149.89911 8928 ft 180 kts 48°
2026-04-21 01:16 -35.51239 149.90932 8928 ft 180 kts 48°
2026-04-21 01:16 -35.50312 149.91966 8927 ft 180 kts 48°
2026-04-21 01:16 -35.49373 149.93012 8929 ft 180 kts 47°
2026-04-21 01:16 -35.48446 149.94046 8928 ft 180 kts 48°
2026-04-21 01:17 -35.47517 149.95081 8928 ft 180 kts 48°
2026-04-21 01:17 -35.46601 149.96101 8929 ft 180 kts 48°
2026-04-21 01:17 -35.45668 149.97139 8934 ft 180 kts 48°
2026-04-21 01:17 -35.44740 149.98172 8940 ft 180 kts 48°
2026-04-21 01:18 -35.43810 149.99208 8946 ft 180 kts 48°
2026-04-21 01:18 -35.42880 150.00241 8952 ft 180 kts 47°
2026-04-21 01:18 -35.41956 150.01268 8956 ft 180 kts 48°
2026-04-21 01:18 -35.41019 150.02310 8958 ft 180 kts 48°
2026-04-21 01:19 -35.40091 150.03342 8960 ft 180 kts 48°
2026-04-21 01:19 -35.39168 150.04367 8961 ft 180 kts 47°
2026-04-21 01:19 -35.38228 150.05409 8961 ft 180 kts 47°
2026-04-21 01:19 -35.37304 150.06438 8961 ft 180 kts 47°
2026-04-21 01:20 -35.36377 150.07466 8960 ft 180 kts 47°
2026-04-21 01:20 -35.35436 150.08510 8960 ft 180 kts 48°
2026-04-21 01:20 -35.34510 150.09535 8959 ft 180 kts 47°
2026-04-21 01:20 -35.33571 150.10577 8957 ft 180 kts 48°
2026-04-21 01:21 -35.32645 150.11603 8981 ft 180 kts 47°
2026-04-21 01:21 -35.31704 150.12645 8997 ft 181 kts 48°
2026-04-21 01:21 -35.30775 150.13675 9004 ft 181 kts 47°
2026-04-21 01:21 -35.29832 150.14720 9006 ft 181 kts 47°
2026-04-21 01:22 -35.28901 150.15750 9006 ft 181 kts 48°
2026-04-21 01:22 -35.28157 150.16933 9009 ft 174 kts 70°
2026-04-21 01:22 -35.27513 150.18214 9000 ft 178 kts 58°
2026-04-21 01:22 -35.26673 150.19351 9003 ft 178 kts 53°
2026-04-21 01:23 -35.25831 150.20453 9001 ft 179 kts 53°
2026-04-21 01:23 -35.24971 150.21574 9002 ft 179 kts 52°
2026-04-21 01:23 -35.24123 150.22681 8890 ft 179 kts 52°
2026-04-21 01:23 -35.23265 150.23801 8723 ft 178 kts 52°
2026-04-21 01:24 -35.22427 150.24899 8555 ft 177 kts 53°
2026-04-21 01:24 -35.21585 150.26007 8383 ft 177 kts 53°
2026-04-21 01:24 -35.20753 150.27098 8213 ft 176 kts 53°
2026-04-21 01:24 -35.19908 150.28206 8040 ft 176 kts 53°
2026-04-21 01:25 -35.19082 150.29289 7870 ft 175 kts 53°
2026-04-21 01:25 -35.18249 150.30383 7698 ft 174 kts 53°
2026-04-21 01:25 -35.17430 150.31462 7527 ft 174 kts 53°
2026-04-21 01:25 -35.16613 150.32539 7357 ft 173 kts 53°
2026-04-21 01:26 -35.15792 150.33620 7185 ft 173 kts 53°
2026-04-21 01:26 -35.14970 150.34706 7012 ft 172 kts 53°
2026-04-21 01:26 -35.14161 150.35780 6841 ft 172 kts 53°
2026-04-21 01:26 -35.13356 150.36855 6670 ft 171 kts 53°
2026-04-21 01:27 -35.12555 150.37920 6498 ft 171 kts 53°
2026-04-21 01:27 -35.11747 150.38998 6325 ft 170 kts 53°
2026-04-21 01:27 -35.10954 150.40057 6107 ft 170 kts 53°
2026-04-21 01:27 -35.10151 150.41121 5861 ft 169 kts 52°
2026-04-21 01:28 -35.09437 150.42038 5645 ft 169 kts 51°
2026-04-21 01:28 -35.08621 150.43074 5397 ft 168 kts 52°
2026-04-21 01:28 -35.07818 150.44098 5152 ft 167 kts 52°
2026-04-21 01:28 -35.07019 150.45125 4907 ft 167 kts 52°
2026-04-21 01:29 -35.06221 150.46149 4660 ft 166 kts 52°
2026-04-21 01:29 -35.05427 150.47166 4416 ft 166 kts 52°
2026-04-21 01:29 -35.04637 150.48181 4171 ft 165 kts 52°
2026-04-21 01:29 -35.03844 150.49199 3924 ft 165 kts 52°
2026-04-21 01:30 -35.03062 150.50203 3681 ft 164 kts 52°
2026-04-21 01:30 -35.02268 150.51221 3451 ft 164 kts 52°
2026-04-21 01:30 -35.01481 150.52231 3223 ft 164 kts 52°
2026-04-21 01:30 -35.00696 150.53223 2617 ft 178 kts 45°
2026-04-21 01:31 -34.99635 150.54059 1821 ft 185 kts 27°
2026-04-21 01:31 -34.98495 150.54576 1629 ft 159 kts 22°
2026-04-21 01:31 -34.97561 150.55032 1704 ft 134 kts 30°
2026-04-21 01:31 -34.96745 150.55533 1509 ft 139 kts 19°
2026-04-21 01:32 -34.95759 150.55479 1112 ft 144 kts 330°
2026-04-21 01:32 -34.95004 150.54776 947 ft 134 kts 317°
2026-04-21 01:32 -34.94321 150.54102 939 ft 119 kts 325°
2026-04-21 01:32 -34.93599 150.54080 911 ft 98 kts 40°
2026-04-21 01:33 -34.93129 150.54555 886 ft 79 kts 44°
2026-04-21 01:33 -34.92754 150.55026 718 ft 76 kts 73°
2026-04-21 01:33 -34.92885 150.55512 636 ft 58 kts 158°
2026-04-21 01:33 -34.93270 150.55533 542 ft 56 kts 208°
2026-04-21 01:34 -34.93553 150.55231 426 ft 47 kts 221°
2026-04-21 01:34 -34.93665 150.55096 385 ft 1 kts 230°
2026-04-21 01:34 -34.93682 150.55070 378 ft 8 kts 174°
2026-04-21 01:34 -34.93697 150.55063 378 ft 3 kts 226°
2026-04-21 01:35 -34.93733 150.55023 375 ft 9 kts 218°
2026-04-21 01:35 -34.93802 150.54990 375 ft 8 kts 174°
2026-04-21 01:35 -34.93836 150.55009 376 ft 4 kts 128°
2026-04-21 01:35 -34.93853 150.55049 380 ft 5 kts 46°
2026-04-21 01:36 -34.93823 150.55096 380 ft 11 kts 47°
2026-04-21 01:36 -34.93813 150.55188 384 ft 8 kts 101°
2026-04-21 01:36 -34.93820 150.55211 385 ft 0 kts 118°